Location: Ferchesar
(52.6477°N, 12.4298°E)
Time: 03:56:22
(UTC+02:00)

Vanguard 3 - Pass Details

Date: 08 March 2021
Orbit: 508 x 3262 km, 33.3° (Epoch: 15 April)

Event Time Altitude Azimuth Distance (km) Brightness Sun altitude
Rises 11:55:19 0° 195° (SSW) 6,765 12.8 32.4°
Reaches altitude 10° 12:01:34 10° 181° (S) 6,023 13.1 32.5°
Maximum altitude 12:13:36 21° 142° (SE) 5,323 12.4 32.6°
Drops below altitude 10° 12:25:18 10° 104° (ESE) 5,887 11.8 32.6°
Sets 12:31:10 0° 90° (E) 6,582 11.8 32.6°
